Preview of NWS' New Version of Forecast
This preview is not operational and should not be used for support decisions.

Regional Weather Roundup (RWR)

Issued by National Weather Service (NWS)

                            
000
ASUS43 KMKX 231121
RWRWI 

WISCONSIN REGIONAL WEATHER ROUNDUP
NATIONAL WEATHER SERVICE MILWAUKEE/SULLIVAN WI
600 AM CDT FRI AUG 23 2019

NOTE: "FAIR" INDICATES FEW OR NO CLOUDS BELOW 12,000 FEET WITH NO
SIGNIFICANT WEATHER AND/OR OBSTRUCTIONS TO VISIBILITY.

WIZ001-002-006>008-014>016-023>028-231200-
NORTHWEST WISCONSIN
  
CITY           SKY/WX    TMP DP  RH WIND       PRES   REMARKS
SUPERIOR ARPT    N/A     38  38 100 CALM      30.26R FOG              
ASHLAND        FOG       37  37 100 CALM      30.26R VSB 1/4          
HAYWARD        FAIR      44  42  93 N6        30.25R                  
SIREN          FAIR      43  40  91 CALM      30.23R                  
CUMBERLAND     FAIR      46  46 100 NE5       30.23R                  
RICE LAKE      FAIR      48  33  55 CALM      30.23S                  
CHETEK         FAIR      52  50  92 E3        30.22S                  
LADYSMITH      FAIR      49  48  97 E6        30.26R                  
EAU CLAIRE     CLOUDY    55  51  86 NE7       30.19S                  
MENOMONIE      CLOUDY    52  50  92 CALM      30.21R                  
NEW RICHMOND   FAIR      53  49  87 CALM      30.20R                  
OSCEOLA        FAIR      53  52  94 NE5       30.23R                  
$$
 
WIZ003>005-009-010-017-018-231200-
NORTH CENTRAL WISCONSIN
  
CITY           SKY/WX    TMP DP  RH WIND       PRES   REMARKS
MANITOWISH WTR FAIR      44  44 100 CALM      30.26R                  
ARBOR VITAE    FAIR      43  41  93 CALM      30.26R                  
WOODRUFF       FAIR      43  41  93 CALM      30.26R                  
RHINELANDER    FAIR      43  41  93 N3        30.26R                  
EAGLE RIVER    FAIR      38  38 100 CALM      30.27R                  
LAND O LAKES   FAIR      35  35 100 CALM      30.29R                  
PHILLIPS         N/A     41  41 100 CALM      30.25R FOG              
TOMAHAWK       FAIR      36  35  97 CALM      30.26R                  
MEDFORD        FAIR      45  44  98 NE3       30.24R                  
MERRILL        FAIR      39  39 100 CALM      30.26R FOG              
$$
 
WIZ029-030-035-036-043>047-231200-
CENTRAL WISCONSIN
  
CITY           SKY/WX    TMP DP  RH WIND       PRES   REMARKS
WAUSAU         FAIR      48  47  96 CALM      30.23R                  
MOSINEE        PTCLDY    46  46 100 E7        30.24R                  
MARSHFIELD     CLOUDY    53  50  89 E8        30.21R                  
STEVENS POINT  CLOUDY    49  49 100 NE5       30.23S                  
WAUPACA        FAIR      52  51  97 N3        30.23S                  
WAUTOMA        CLOUDY    55  53  93 NE6       30.22R                  
WISC RAPIDS    CLOUDY    56  51  84 E8        30.21S                  
CAMP DOUGLAS   FAIR      55  55 100 CALM      30.19S                  
$$
 
WIZ011>013-019>022-031-037>040-048>050-231200-
NORTHEAST WISCONSIN
  
CITY           SKY/WX    TMP DP  RH WIND       PRES   REMARKS
ANTIGO         FAIR      42  42 100 CALM      30.27R                  
SHAWANO        FAIR      54  52  93 N6        30.24S                  
OCONTO         FAIR      48  48  97 N3        30.24R                  
STURGEON BAY   FAIR      54  49  83 NE6       30.23R                  
GREEN BAY      FAIR      50  48  93 CALM      30.23R                  
MANITOWOC      FAIR      53  50  89 N6        30.22R                  
APPLETON       PTCLDY    52  48  87 NE7       30.21R                  
CLINTONVILLE   FAIR      49  47  92 N3        30.24R                  
OSHKOSH        FAIR      60  53  77 NE9       30.20S                  
$$
 
WIZ032>034-041-042-053>061-231200-
SOUTHWEST WISCONSIN
  
CITY           SKY/WX    TMP DP  RH WIND       PRES   REMARKS
LA CROSSE      FAIR      60  55  83 CALM      30.17R                  
SPARTA         FAIR      49  49 100 CALM      30.19R                  
VIROQUA        CLOUDY    57  57 100 E6        30.19R                  
BOSCOBEL       FOG       53  51  93 CALM      30.18R VSB 1            
PRAIRIE DU CHI FAIR      56  55  95 CALM      30.16R                  
PLATTEVILLE    FAIR      56  56 100 E7        30.17R                  
$$

WIZ056-057-062-063-064-067-068-231200-
SOUTH CENTRAL WISCONSIN
  
CITY           SKY/WX    TMP DP  RH WIND       PRES   REMARKS
REEDSBURG      FAIR      56  56 100 CALM      30.19R                  
BARABOO/DELLS  CLOUDY    55  54  94 E6        30.19R                  
LONE ROCK      NOT AVBL                                               
MINERAL POINT    N/A     57  57 100 NE8       30.17R                  
MADISON        MOCLDY    59  53  80 NE5       30.18R                  
MIDDLETON      FAIR      56  12  17 CALM      30.19R                  
WATERTOWN      CLOUDY    57  55  91 NE7       30.18R                  
MONROE         FAIR      57  54  90 NE7       30.17R                  
JANESVILLE     MOCLDY    57  57 100 CALM      30.16R                  
$$
 
WIZ051-052-058>065-066-070>072-231200-
SOUTHEAST WISCONSIN
  
CITY           SKY/WX    TMP DP  RH WIND       PRES   REMARKS
MILWAUKEE      MOCLDY    65  51  60 NE10      30.17R                  
WAUKESHA       CLOUDY    55  52  88 NE5       30.19S                  
MILWAUKEE/TIMM FAIR      55  48  76 N5        30.19R                  
RACINE         MOCLDY    64  51  62 NE8       30.18R                  
KENOSHA        CLOUDY    61  56  83 NE8       30.16S                  
FOND DU LAC    FAIR      56  50  80 E5        30.20                   
SHEBOYGAN      NOT AVBL                                               
WEST BEND      FAIR      50  50 100 CALM      30.20R                  
JUNEAU         FAIR      55  52  91 CALM      30.20R                  
$$

LSZ147-162-231200-
LAKE SUPERIOR
  
STATION/POSITION TIME  TEMP    WIND        PRES    WAVE
                       AIR SEA DIR/SP/G            HT/PER
                 (UTC) (F)     (DEG/KT/KT) (MB)    (FT/S)
W MID LAKE BUOY  1050   60 63   CALM  /  2 1024.7R   1
DEVILS ISLAND    1100   61     140/  6/  8 1024.8R
SAXON HARBOR     1030   48     210/  1/  4 1023.7R
$$
 
LMZ867-665-643>646-231200-
LAKE MICHIGAN
  
STATION/POSITION TIME  TEMP    WIND        PRES    WAVE
                       AIR SEA DIR/SP/G            HT/PER
                 (UTC) (F)     (DEG/KT/KT) (MB)    (FT/S)
S GREEN BAY BUOY 1100   65 69   10/ 12/ 14 1023.5
N MID LAKE BUOY  1100   61 70  350/  8/ 12 1023.4
NORTHPORT PIER   1040   60     340/  5/  6 1023.0R
KEWAUNEE LAKESHO 1048   54     310/  1/  3 1022.5R
SHEBOYGAN LAKESH 1100   59     330/  9/ 10 1022.6R
PORT WASHINGTON  1030   59     330/  7/ 11 1023.0S
ATWATER BUOY     1100   68 69   50/ 12/ 14 1022.0    3/ 4
S MID LAKE BUOY  1100   66 73   60/ 14/ 17 1021.6
KENOSHA   LAKESH 1100   68      70/ 14/ 18 1021.0
$$

TC  - TEMPERATURE IN CELSIUS
VSB - VISIBILITY IN STATUTE MILES
WCI - WIND CHILL INDEX
HX  - HEAT INDEX